Location: Myrnam
(53.6612°N, 111.2289°W)
Time: 13:08:10
(UTC+00:00)

VELOX 1 - Visible Passes

Search period start: 01 December 2023 00:00
Search period end: 11 December 2023 00:00
Orbit: 610 x 625 km, 98.4° (Epoch: 01 December)

Date Brightness Start Highest point End Pass type
(mag) Time Alt. Az. Time Alt. Az. Time Alt. Az.
01 Dec ? 12:17:35 10° ESE 12:20:39 19° ENE 12:23:43 10° N visible
01 Dec ? 13:51:58 10° S 13:56:15 70° WSW 14:00:33 10° NNW visible
02 Dec ? 12:33:36 10° ESE 12:37:07 25° ENE 12:40:38 10° N visible
02 Dec ? 14:08:46 10° S 14:12:55 49° W 14:17:07 10° NNW visible
03 Dec ? 12:49:45 10° SE 12:53:36 33° ENE 12:57:28 10° N visible
03 Dec ? 14:25:41 10° SSW 14:29:36 35° W 14:33:35 10° NNW visible
04 Dec ? 13:06:02 10° SE 13:10:07 45° ENE 13:14:13 10° N visible
05 Dec ? 11:49:49 10° ENE 11:51:26 12° NE 11:53:03 10° NNE visible
05 Dec ? 13:22:25 10° SSE 13:26:39 63° ENE 13:30:54 10° N visible
06 Dec ? 12:05:16 10° E 12:07:47 16° NE 12:10:19 10° NNE visible
06 Dec ? 13:38:55 10° SSE 13:43:12 87° ENE 13:47:31 10° NNW visible
07 Dec ? 12:21:02 10° ESE 12:24:09 20° ENE 12:27:17 10° N visible
07 Dec ? 13:55:31 10° S 13:59:46 67° WSW 14:04:04 10° NNW visible
08 Dec ? 12:36:59 10° ESE 12:40:33 26° ENE 12:44:07 10° N visible
08 Dec ? 14:12:14 10° S 14:16:22 47° W 14:20:32 10° NNW visible
09 Dec ? 12:53:05 10° SE 12:56:57 35° ENE 13:00:52 10° N visible
09 Dec ? 14:29:05 10° SSW 14:32:59 34° W 14:36:55 10° NNW visible
10 Dec ? 13:09:17 10° SE 13:13:23 47° ENE 13:17:31 10° N visible
10 Dec ? 14:46:06 10° SSW 14:49:38 25° W 14:53:12 10° NW visible
